Location: Home
(42.5358°N, 72.7383°W)
Time: 06:34:26
(UTC-05:00)

Explorer 11/Cluster Stage 4 - Pass Details

Date: 04 December 2021
Orbit: 467 x 1255 km, 28.8° (Epoch: 25 January)

Event Time Altitude Azimuth Distance (km) Brightness Sun altitude
Rises 03:25:55 0° 244° (WSW) 3,637 - -39.5°
Reaches altitude 10° 03:28:49 10° 232° (SW) 2,813 - -39.0°
Maximum altitude 03:34:36 28° 177° (S) 1,997 - -37.9°
Exits shadow 03:36:01 26° 160° (SSE) 2,098 8.8 -37.6°
Drops below altitude 10° 03:41:03 10° 123° (ESE) 3,168 10.2 -36.7°
Sets 03:44:31 0° 113° (ESE) 4,177 11.1 -36.1°
